#timestamp,LO_Frequency,Hit,StdDev 
1544155215.2,286046997.4,N
1544155235.0,286046997.9,N
1544155235.9,286046997.9,N
1544155255.8,286046995.2,N
1544155275.6,286046992.0,N
1544155295.4,286046996.3,N
1544155315.3,286046994.8,N
1544155335.1,286046994.4,N
1544155355.8,286046993.2,N
1544155375.7,286046986.3,N
1544155395.5,286046995.5,N
1544155415.4,286046994.8,N
1544155435.2,286046996.3,N
1544155455.0,286046999.4,N
1544155455.9,286046999.4,N
1544155475.8,286046996.7,N
1544155495.6,286046998.1,N
1544155515.4,286047000.4,N
1544155535.3,286046996.9,N
1544155555.1,286046997.1,N
1544155575.9,286046997.4,N
1544155595.7,286046994.4,N
1544155615.5,286046994.1,N
1544155635.4,286046990.2,N
1544155655.2,286046992.7,N
1544155675.0,286046994.4,N
1544155675.9,286046994.4,N
1544155695.8,286046994.6,N
1544155715.6,286046995.1,N
1544155735.5,286046994.9,N
1544155755.3,286046995.5,N
1544155775.1,286046996.9,N
1544155795.9,286046996.2,N
1544155815.7,286046992.2,N
1544155835.5,286046992.3,N
1544155855.4,286046996.7,N
1544155875.2,286046995.4,N
1544155895.1,286046996.0,N
1544155896.0,286046996.0,N
1544155915.8,286046994.6,N
1544155935.6,286046991.9,Y
1544155955.5,286046994.9,P
1544155975.3,286046993.9,P
1544155995.1,286046994.2,P
1544156015.9,286046990.5,Y
1544156035.7,286046999.0,P
1544156055.6,286047000.9,N
1544156075.4,286046999.0,N
1544156095.2,286047000.3,N
1544156115.1,286047005.5,N
1544156116.0,286047005.5,N
1544156135.8,286047011.9,Y
1544156155.6,286047014.5,P
1544156175.5,286047015.3,N
1544156195.3,286047021.2,P
1544156215.2,286047027.2,Y
1544156235.9,286047012.5,P
1544156255.7,286047012.0,P
1544156275.6,286047012.4,P
1544156295.4,286047006.8,Y
1544156315.2,286046993.1,P
1544156335.1,286046988.5,N
1544156336.0,286046988.5,N
1544156355.8,286046991.5,N
1544156375.7,286046987.9,N
1544156395.5,286046986.8,N
1544156415.3,286046982.3,N
1544156435.2,286046980.1,N
1544156455.0,286046978.1,N
1544156455.9,286046978.1,N
1544156475.7,286046974.6,N
1544156495.6,286046975.4,N
1544156515.4,286046973.7,N
1544156535.3,286046973.6,N
1544156555.1,286046972.9,N
1544156556.0,286046972.9,N
1544156575.8,286046978.9,N
1544156595.7,286046982.9,N
1544156615.5,286046984.6,N
1544156635.3,286046990.3,N
1544156655.2,286046997.3,N
1544156675.0,286046999.7,N
1544156675.9,286046999.7,N
1544156695.8,286046999.6,N
1544156715.6,286046997.6,N
1544156735.4,286046995.0,N
1544156755.3,286046996.0,N
1544156775.1,286046992.7,N
1544156795.8,286046988.8,N
1544156815.7,286046991.4,N
1544156835.5,286046990.0,N
1544156855.4,286046987.5,N
1544156875.2,286046990.8,N
1544156895.0,286046990.4,N
1544156895.9,286046990.4,N
1544156915.8,286046990.0,N
1544156935.6,286046987.3,N
1544156955.4,286046989.8,N
1544156975.3,286046989.7,N
1544156995.1,286046988.9,N
1544157015.9,286046989.4,N
1544157035.7,286046989.6,N
1544157055.5,286046987.8,N
1544157075.4,286046986.4,N
1544157095.2,286046984.8,N
1544157115.0,286046982.9,N
1544157116.0,286046982.9,Y
1544157135.8,286046988.6,P
1544157155.6,286046988.0,P
1544157175.5,286046985.5,P
1544157195.3,286046987.9,Y
1544157215.1,286047003.4,P
1544157235.9,286047009.2,N
1544157255.7,286047005.1,N
1544157275.5,286047003.3,N
1544157295.4,286047004.4,N
1544157315.2,286047001.0,N
1544157335.1,286046996.5,N
1544157336.0,286046996.5,N
1544157355.8,286046997.0,N
1544157375.6,286047000.7,N
1544157395.5,286047000.9,N
1544157415.3,286046998.1,N
1544157435.2,286047002.7,N
1544157455.9,286047007.9,N
1544157475.7,286047007.7,N
1544157495.6,286047007.0,N
1544157515.4,286047005.7,N
1544157535.2,286047004.7,N
1544157555.1,286047006.9,N
1544157556.0,286047006.9,N
1544157575.8,286047011.8,N
1544157595.7,286047010.2,N
1544157615.5,286047008.7,N
1544157635.3,286047011.9,N
1544157655.2,286047004.9,N
1544157675.0,286047001.5,N
1544157675.9,286047001.5,N
1544157695.7,286046999.7,N
1544157715.6,286047000.0,N
1544157735.4,286047003.2,N
1544157755.3,286047001.9,N
1544157775.1,286047004.2,N
1544157776.0,286047004.2,N
1544157795.8,286047005.6,N
1544157815.7,286047003.4,N
1544157835.5,286047005.7,N
1544157855.3,286047001.4,N
1544157875.2,286047001.6,N
1544157895.0,286046998.1,N
1544157895.9,286046998.1,N
1544157915.8,286047000.4,N
1544157935.6,286046999.5,N
1544157955.4,286046996.6,N
1544157975.3,286046997.0,N
1544157995.1,286047002.6,N
1544158015.8,286047004.0,N
1544158035.7,286047001.6,N
1544158055.5,286047001.7,N
1544158075.4,286047000.1,N
1544158095.2,286047003.1,N
1544158115.0,286047013.6,Y
1544158115.9,286047013.6,P
1544158135.8,286047017.0,P
1544158155.6,286047015.3,N
1544158175.4,286047013.9,N
1544158195.3,286047008.6,N
1544158215.1,286047006.3,N
1544158235.9,286047012.9,N
1544158255.7,286047017.3,Y
1544158275.5,286047009.2,P
1544158295.4,286047010.2,P
1544158315.2,286047015.6,P
1544158335.1,286047014.5,Y
1544158336.0,286047014.5,P
1544158355.8,286047000.6,N
1544158375.6,286046995.2,N
1544158395.5,286046992.7,N
1544158415.3,286046987.5,N
1544158435.2,286046986.8,N
1544158455.9,286046983.0,N
1544158475.7,286046983.5,N
1544158495.6,286046978.9,N
1544158515.4,286046977.3,N
1544158535.3,286046978.7,N
1544158555.1,286046978.1,N
1544158556.0,286046978.1,N
1544158575.8,286046977.9,N
1544158595.7,286046977.4,N
1544158615.5,286046977.5,N
1544158635.3,286046985.6,N
1544158655.2,286046987.7,N
1544158675.0,286046983.7,N
1544158675.9,286046983.7,N
1544158695.8,286046982.5,N
1544158715.6,286046979.2,N
1544158735.4,286046981.9,N
1544158755.3,286046982.0,N
1544158775.1,286046979.4,N
1544158776.0,286046979.4,N
1544158795.8,286046977.6,N
